Regional Weather Roundup
Issued by NWS

Home | Current Version | Previous Version | Text Only | Print | Product List | Glossary Off
Versions: 1 2 3 4 5 6 7 8 9 10 11 12 13 14 15 16 17 18 19 20 21 22 23 24 25 26 27 28 29 30 31 32 33 34 35 36 37 38 39 40 41 42 43 44 45 46 47 48 49 50

484
ASUS43 KBIS 281202
RWRND

NORTH DAKOTA REGIONAL WEATHER ROUNDUP
NATIONAL WEATHER SERVICE BISMARCK ND
700 AM CDT THU JUL 28 2016

NOTE: "FAIR" INDICATES FEW OR NO CLOUDS BELOW 12,000 FEET WITH NO
SIGNIFICANT WEATHER AND/OR OBSTRUCTIONS TO VISIBILITY.


NDZ001>003-009>011-017-281300-
NORTHWEST NORTH DAKOTA

CITY           SKY/WX    TMP DP  RH WIND       PRES   REMARKS
WILLISTON      CLEAR     60  58  92 N6        30.16R
6HR MIN TEMP:  60; 6HR MAX TEMP:  65; 6HR PCP:  0.04;

MINOT          CLOUDY    62  57  83 NE5       30.16S
MINOT AFB      CLOUDY    59  56  89 E6        30.15S
$$

NDZ018>021-031>035-040>046-281300-
SOUTHWEST NORTH DAKOTA

CITY           SKY/WX    TMP DP  RH WIND       PRES   REMARKS
BISMARCK       CLOUDY    63  59  87 E7        30.15R
6HR MIN TEMP:  62; 6HR MAX TEMP:  66; 6HR PCP: TRACE;

DICKINSON      HVY RAIN  59  59 100 E9        30.13S FOG
GARRISON         N/A     61  59  93 NE3       30.15S
6HR MIN TEMP:  61; 6HR MAX TEMP:  64; 6HR PCP:  0.06;

HETTINGER ARPT CLOUDY    59  57  93 E6        30.14S FOG
$$

NDZ004>008-012>016-024-026-027-054-281300-
NORTHEAST NORTH DAKOTA

CITY           SKY/WX    TMP DP  RH WIND       PRES   REMARKS
GRAND FORKS    CLOUDY    58  56  93 N5        30.11R
GRND FRKS AFB  PTCLDY    58  56  92 N9        30.13R
DEVILS LAKE    CLOUDY    56  55  97 N3        30.16S
$$

NDZ022-023-025-028>030-036>039-047>053-281300-
SOUTHEAST NORTH DAKOTA

CITY           SKY/WX    TMP DP  RH WIND       PRES   REMARKS
FARGO          CLOUDY    63  60  90 N5        30.08R
6HR MIN TEMP:  62; 6HR MAX TEMP:  64; 6HR PCP: TRACE;

JAMESTOWN      MOCLDY    57  55  93 N7        30.12S
$$





USA.gov is the U.S. government's official web portal to all federal, state and local government web resources and services.